User: anonymous   Login
Location: Wayah Bald
(35.1806°N, 83.5603°W)
Time: 08:36:07
(UTC-04:00)
Language:

Meteor 1-27 Rocket - Orbit

View from above orbital plane
View from above orbital plane
View from above satellite
View from above satellite

Ground track
Ground track

The orbit data is extracted from the following two-line orbital elements,

1 09904U 77024B   14304.47748506  .00000073  00000-0  35740-4 0  1024
2 09904 081.2616 337.1336 0055454 149.6350 318.0874 14.06746765927864
Epoch (UTC): 31 October 2014 11:27:34
Eccentricity: 0.0055454
inclination: 81.2616°
perigee height: 830 km
apogee height: 911 km
right ascension of ascending node: 337.1336°
argument of perigee: 149.6350°
revolutions per day: 14.06746765
mean anomaly at epoch: 318.0874°
orbit number at epoch: 92786

The dashed part of the orbit path shows where the satellite is in the earth's shadow,  

DLR